This is the latest recevied weather packets stored in our database for station/object N6AMQ-1. If no packets are shown the sender has not sent any weather packets the latest 1 day(s).
| Time | Temp. | Humidity | Pressure | Rain* | Wind** | Luminosity | Snow |
|---|---|---|---|---|---|---|---|
| 1778012268 | 17.22° C | 66% | 1016.9 hPa | 0 mm | 0 m/s | - | - |
| 1778012030 | 17.22° C | 65% | 1016.9 hPa | 0 mm | 1.34 m/s, 270° | - | - |
| 1778011968 | 17.22° C | 66% | 1016.9 hPa | 0 mm | 0.89 m/s, 292° | - | - |
| 1778011668 | 17.22° C | 67% | 1016.9 hPa | 0 mm | 0 m/s | - | - |
| 1778010830 | 16.67° C | 68% | 1016.9 hPa | 0 mm | 0.45 m/s, 112° | - | - |
| 1778010768 | 16.67° C | 68% | 1016.9 hPa | 0 mm | 0.89 m/s, 270° | - | - |
| 1778010468 | 16.67° C | 68% | 1016.9 hPa | 0 mm | 1.34 m/s, 270° | - | - |
| 1778010168 | 16.67° C | 70% | 1016.9 hPa | 0 mm | 0.45 m/s, 338° | - | - |
| 1778009868 | 16.67° C | 71% | 1016.9 hPa | 0 mm | 0.89 m/s, 338° | - | - |
| 1778009630 | 16.11° C | 71% | 1016.9 hPa | 0 mm | 0 m/s | - | - |
| 1778009568 | 16.11° C | 71% | 1016.9 hPa | 0 mm | 0 m/s | - | - |
| 1778009268 | 16.11° C | 73% | 1016.9 hPa | 0 mm | 0 m/s | - | - |
| 1778008968 | 16.11° C | 72% | 1016.9 hPa | 0 mm | 0.89 m/s, 270° | - | - |
| 1778008668 | 16.11° C | 75% | 1016.9 hPa | 0 mm | 0.45 m/s, 270° | - | - |
| 1778008430 | 16.11° C | 74% | 1016.9 hPa | 0 mm | 0.89 m/s, 225° | - | - |
| 1778008368 | 16.11° C | 75% | 1016.9 hPa | 0 mm | 1.34 m/s, 270° | - | - |
| 1778008068 | 15.56° C | 75% | 1016.9 hPa | 0 mm | 0.45 m/s, 270° | - | - |
| 1778007468 | 15.56° C | 76% | 1016.9 hPa | 0 mm | 0.45 m/s, 270° | - | - |
| 1778007230 | 15.56° C | 76% | 1016.9 hPa | 0 mm | 0.89 m/s, 315° | - | - |
| 1778007168 | 15.56° C | 76% | 1016.9 hPa | 0 mm | 1.34 m/s, 292° | - | - |
| 1778006568 | 15.56° C | 78% | 1016.9 hPa | 0 mm | 0.45 m/s, 315° | - | - |
| 1778006268 | 15° C | 77% | 1016.9 hPa | 0 mm | 0.45 m/s, 292° | - | - |
| 1778006030 | 15° C | 78% | 1016.9 hPa | 0 mm | 0.45 m/s, 270° | - | - |
| 1778005968 | 15° C | 78% | 1016.9 hPa | 0 mm | 0.45 m/s, 315° | - | - |
| 1778005668 | 15° C | 78% | 1016.9 hPa | 0 mm | 0.89 m/s, 292° | - | - |
* Rain latest hour (hover to see other rain measurements)
** Current wind speed in m/s (hover to see current wind gust speed)